www.pogodaiklimat.ru

Погода и климат >> Архив погоды >> Гана >> Бол


ПОГОДА в Боле

  • Прогноз погоды в Боле
  • Монитор погоды в Боле

АРХИВ ПОГОДЫ в Боле

Время (UTC), дата Ветер
(напр.,м/с)
 
Видим.   Явления Облачность Т
(С)
Тd
(С)
f
(%)
Тe
(С)
Тes
(С)
Комфортность P
(гПа)
Po
(гПа)
Тmin
(С)
Tmax
(С)
R
(мм)
R24
(мм)
S
(см)
15 16.07 ЮЗ 1 16 км 8/5 360 м
[Cu Sc Ac trans]
+30.5 +22.3 62 +40 +45 очень
душно
1011.3 977.6
18 16.07 ЮЗ 1 10 км гроза без осадков 8/8 330 м
[Cb cap]
+24.0 +23.0 94 +32 +32 очень
душно
1012.8 978.3 +30.9 9
21 16.07 штиль 0 10 км {гроза} 5/0
[Ci ing]
+24.5 +22.8 90 +32 +32 очень
душно
1015.3 980.8
00 17.07 штиль 0 10 км пыльная буря на расстоянии {гроза} 5/0
[Ac trans Ci fib]
+24.0 +23.0 94 +32 +32 очень
душно
1015.0 980.5
03 17.07 штиль 0 10 км 4/0
[Ac trans]
+23.0 +22.0 94 +31 +31 очень
душно
1013.2 978.6
06 17.07 ЮЗ 2 10 км 9/9 360 м
[Sc]
+24.0 +22.3 90 +31 +31 очень
душно
1015.3 980.8 +24.0 1
09 17.07 ЮЗ 2 12 км 9/9 330 м
[Sc]
+25.0 +22.6 87 +33 +34 очень
душно
1017.8 983.3
12 17.07 ЮЗ 2 15 км 6/6 360 м
[Sc]
+28.5 +22.5 70 +37 +47 очень
душно
1012.9 978.9
15 17.07 ЮЗ 1 15 км 5/5 360 м
[Cu Sc]
+30.1 +22.8 65 +40 +47 очень
душно
1013.3 979.5
18 17.07 ЮЗ 2 15 км 6/5 450 м
[Cu med, cong Ac trans Ci fib]
+29.5 +22.0 64 +38 +38 очень
душно
1012.7 978.9 +30.5
21 17.07 штиль 0 12 км 4/0
[Ac trans Ci sp]
+25.1 +24.1 94 +35 +35 очень
душно
1014.6 980.2
06 18.07 ЮЗ 1 10 км 5/1 360 м
[Sc Ac trans]
+23.5 +22.2 92 +30 +30 очень
душно
1014.7 980.1 +23.5
09 18.07 ЮЗ 2 12 км 9/9 360 м
[Sc]
+25.5 +23.1 87 +34 +35 очень
душно
1016.3 981.9
12 18.07 СЗ 2 16 км 9/6 360 м
[Cu Sc Ac trans]
+28.2 +23.4 75 +38 +43 очень
душно
1015.3 981.2
15 18.07 ЮЗ 2 16 км 8/5 450 м
[Cu med, cong Ci sp]
+30.3 +23.2 66 +41 +46 опасность
перегрева
1011.9 978.2
18 18.07 ЮЗ 1 16 км 9/3 360 м
[Cu Sc Ac trans Cs]
+29.7 +23.4 69 +40 +40 очень
душно
1011.1 977.3 +30.5
21 18.07 штиль 0 10 км 9/9 360 м
[Sc]
+28.0 +24.2 80 +39 +39 очень
душно
1013.6 979.6
00 19.07 ЮЗ 2 10 км гроза без осадков 9/9 360 м
[Cb cap]
+22.5 +21.5 94 +30 +30 очень
душно
1015.5 980.8 18
06 19.07 штиль 0 12 км {гроза} 9/6 360 м
[Sc Ac trans]
+23.0 +22.0 94 +31 +31 очень
душно
1015.3 980.6 +22.3 18
09 19.07 ЮЗ 2 13 км 9/5 360 м
[Cu Sc Ac trans]
+24.0 +22.0 89 +31 +34 очень
душно
1016.1 981.5
12 19.07 СЗ 3 16 км 8/4 360 м
[Cu Sc Ac trans Cs]
+27.5 +22.2 73 +36 +44 очень
душно
1015.2 981.1
15 19.07 З 2 16 км 8/4 360 м
[Cu Sc Ac trans]
+28.0 +22.5 72 +37 +41 очень
душно
1013.1 979.1
21 19.07 ЮЗ 1 14 км 8/0
[Ac trans Cs]
+24.4 +22.1 87 +32 +32 очень
душно
1014.7 980.2
00 20.07 штиль 0 14 км 9/0
[Ac trans]
+23.8 +22.7 94 +31 +31 очень
душно
1015.4 980.8
03 20.07 штиль 0 14 км 8/0
[Ac trans]
+23.1 +21.8 92 +31 +31 очень
душно
1014.7 980.1
06 20.07 штиль 0 14 км 8/8 300 м
[Cb calv Ac cuf Ci fib]
+22.7 +22.7 100 +30 +30 очень
душно
1015.6 980.9 +22.7
09 20.07 ЮЗ 2 16 км 9/9 330 м
[Sc]
+25.0 +22.5 86 +33 +34 очень
душно
1016.9 982.4
12 20.07 ЮЗ 2 18 км 8/5 360 м
[Cu Sc Ac trans]
+28.5 +23.2 73 +38 +45 очень
душно
1014.4 980.4
15 20.07 З 3 18 км 8/4 450 м
[Cu med, cong Ci ing]
+30.5 +22.0 61 +39 +44 очень
душно
1012.4 978.7
18 20.07 З 2 16 км 8/3 450 м
[Cb cap Ac trans]
+29.5 +22.8 67 +39 +39 очень
душно
1012.0 978.2 +30.5
21 20.07 СЗ 1 13 км гроза без осадков 6/4 360 м
[Cb cap Ci sp]
+26.1 +23.1 84 +35 +35 очень
душно
1011.4 977.2
00 21.07 штиль 0 10 км слаб. дождь {гроза} 10/4 330 м
[Sc As op]
+24.9 +23.3 91 +33 +33 очень
душно
1015.4 981.0 6
03 21.07 Ю 1 10 км слаб. дождь 10/4 300 м
[Sc As op]
+24.5 +23.4 94 +33 +33 очень
душно
1013.0 978.6
09 21.07 ЮЗ 1 10 км слаб. дождь {гроза} 10/6 300 м
[Sc As op]
+22.0 +21.0 94 +28 +29 душно 1017.2 982.4
15 21.07 ЮЗ 2 14 км 8/4 360 м
[Cu Sc Cs]
+25.2 +21.7 81 +32 +39 очень
душно
1012.8 978.5
18 21.07 ЮЗ 1 15 км 8/4 360 м
[Cu Sc Cs]
+26.0 +21.8 78 +33 +34 очень
душно
1012.7 978.5 +26.5
21 21.07 штиль 0 13 км 4/0
[Ac trans Ci sp]
+24.0 +23.0 94 +32 +32 очень
душно
1013.1 978.6
00 22.07 штиль 0 13 км ясно +22.5 +21.9 96 +30 +30 очень
душно
1014.4 979.7
03 22.07 штиль 0 13 км 4/0
[Ac trans Ci sp]
+22.0 +21.0 94 +28 +28 душно 1012.9 978.2
06 22.07 ЮЗ 1 13 км 9/9 360 м
[Sc]
+22.5 +21.9 96 +30 +30 очень
душно
1014.2 979.5 +22.0
09 22.07 ЮЗ 1 14 км 8/4 360 м
[Sc Ac trans]
+25.1 +22.2 84 +33 +37 очень
душно
1015.6 981.2
12 22.07 ЮЗ 1 15 км 6/4 450 м
[Cu med, cong Ac trans Ci sp]
+28.0 +21.9 69 +36 +49 очень
душно
1014.8 980.7
15 22.07 ЮЗ 1 15 км 8/1 450 м
[Cu med, cong Ac trans Cs]
+29.4 +22.0 64 +38 +46 очень
душно
1012.5 978.7
18 22.07 ЮЗ 1 15 км 6/3 450 м
[Cu med, cong Ac trans Cs]
+29.0 +22.5 68 +38 +38 очень
душно
1011.9 978.0 +30.0
21 22.07 штиль 0 10 км 3/0
[Ci fib]
+25.1 +22.0 83 +32 +32 очень
душно
1013.7 979.3
00 23.07 штиль 0 10 км 1/0
[Ci fib]
+24.0 +22.3 90 +31 +31 очень
душно
1013.4 978.9
03 23.07 штиль 0 10 км ясно +23.0 +21.3 90 +31 +31 очень
душно
1012.2 977.6
06 23.07 ЮЗ 2 10 км 9/9 360 м
[Sc]
+23.5 +21.8 90 +30 +30 очень
душно
1014.8 980.2 +23.5
09 23.07 ЮЗ 2 13 км 9/9 330 м
[Sc]
+24.0 +21.9 88 +31 +32 очень
душно
1016.4 981.8
12 23.07 ЮЗ 2 15 км 8/5 360 м
[Cu Sc Ac trans]
+27.4 +22.2 73 +36 +43 очень
душно
1014.4 980.3

 

Местоположение метеостанции Бол (Гана): широта 9.03 долгота -2.48 высота над уровнем моря 301 м.

В архиве по умолчанию представлена погода в Боле за последнюю неделю. Архивные данные за месяц целиком и за предыдущие месяцы, начиная с января 2011 года, Вы можете получить, выбрав интересующий диапазон дат из раскрывающегося списка и нажав кнопку "Ввод!".


*Определитесь, кто Вы:
робот инопланетянин человек

Внимание! Время в таблицах - всемирное. Для получения местного времени необходимо прибавить поправку, которая равна 1 ч.

Смотрите также архив погоды в соседних городах и на ближайших метеорологических станциях:

Погода в Ва (Гана) (113 км)
Погода в Бондуку (Кот-д'Ивуар) (114 км)
Погода в Уэнчи (Гана) (148 км)
Погода в Гауа (Буркина-Фасо) (164 км)
Погода в Тамале (Гана) (186 км)
Погода в Суняни (Гана) (190 км)
Погода в Навронго (Гана) (257 км)
Погода в Йенди (Гана) (274 км)
Погода в Кумаси (Гана) (275 км)
Погода в По (Буркина-Фасо) (277 км)

Пояснения к столбцам:

Ветер - указаны скорость ветра в м/с - средняя за 10 мин, порывы в срок и между сроками (в фигурных скобках) и направление, откуда дует ветер: С - северный, СВ - северо-восточный, В - восточный, ЮВ - юго-восточный, Ю - южный, ЮЗ - юго-западный, З - западный, СЗ - северо-западный.
Видимость - горизонтальная дальность видимости в метрах или километрах. При видимости от 1 до 10 км при отсутствии осадков обычно наблюдается дымка, при ухудшении видимости до 1 км и менее - туман. В сухую погоду видимость может ухудшаться дымом, пылью или мглою.
Явления - указаны атмосферные явления, наблюдавшиеся в срок или в последний час перед сроком; фигурными скобками обозначены явления, наблюдавшиеся между сроками (за 1-3 часа до срока); квадратными скобками обозначены град или гололедные отложения с указанием их диаметра в мм.
Облачность - указаны через наклонную черту общая и нижняя облачность в баллах и высота нижней границы облаков в метрах; квадратными скобками обозначены формы облаков: Ci - перистые, Cs - перисто-слоистые, Cc - перисто-кучевые, Ac - высококучевые, As - высокослоистые, Sc - слоисто-кучевые, Ns - слоисто-дождевые, Cu - кучевые, Cb - кучево-дождевые. Подробнее классификацию облаков см. в Атласе облаков (PDF).
T - Температура воздуха - температура, измеренная на высоте 2 м над землей.
Td - Температура точки росы - температура, при понижении до которой содержащийся в воздухе водяной пар достигнет насыщения.
f - Относительная влажность воздуха - влажноcть воздуха, измеренная на высоте 2 м над землей.
Te - Эффективная температура - температура, которую ощущает одетый по сезону человек в тени. Характеристика душности погоды. При расчете учитывается влияние влажности воздуха и скорости ветра на теплоощущения человека.
Tes - Эффективная температура на солнце - температура, которую ощущает человек, с поправкой на солнечный нагрев. Характеристика знойности погоды. Зависит от высоты солнца над горизонтом, облачности и скорости ветра. Ночью, в пасмурную погоду, а также при ветре 12 м/с и более поправка равна нулю.
P - Атмосферное давление - приведенное к уровню моря атмосферное давление.
Po - Атмосферное давление - измеренное на уровне метеостанции атмосферное давление.
Tmin - Минимальная температура - минимум температуры воздуха на высоте 2 м над землей.
Tmax - Максимальная температура - максимум температуры воздуха на высоте 2 м над землей.
R - Количество осадков - Количество выпавших осадков за период времени, мм. При наведении курсора мыши на число - период времени, за который выпало указанное количество осадков.
R24 - Количество осадков - Количество выпавших осадков за 24 часа, мм.
S - Снежный покров - Высота снежного покрова, см. При наведении курсора мыши на число - состояние снежного покрова и степень покрытия местности в баллах.